Change the Weather History Date:

Tuesday, February 11, 2014

  Actual Average Record
Temperature  
Mean Temperature 94 °F -  
Max Temperature 109 °F - - ()
Min Temperature 78 °F - - ()
Cooling Degree Days 28    
Growing Degree Days 44 (Base 50)    
Moisture  
Dew Point 46 °F    
Average Humidity 19    
Maximum Humidity 30    
Minimum Humidity 10    
Precipitation  
Precipitation 0.00 in - - ()
Sea Level Pressure  
Sea Level Pressure 29.77 in    
Wind  
Wind Speed 9 mph ()    
Max Wind Speed 30 mph    
Max Gust Speed 41 mph    
Visibility 6.1 miles    
Events      
T = Trace of Precipitation, MM = Missing Value Source: Averaged Metar Reports

Daily Weather History Graph

Daily Weather History Graph

Search for Another Location

Airport or City:

Trip Planner

Search our weather history database for the weather conditions in past years. The results will help you decide how hot, cold, wet, or windy it might be!

Date:

Astronomy

Feb. 11, 2014 Rise Set
Actual Time 6:58 AM ACDT 8:14 PM ACDT
Civil Twilight 6:33 AM ACDT 8:39 PM ACDT
Nautical Twilight 6:03 AM ACDT 9:09 PM ACDT
Astronomical Twilight 5:31 AM ACDT 9:40 PM ACDT
Moon 5:33 PM ACDT (2/11) 3:34 AM ACDT (2/11)
Length of Visible Light 14h 06m
Length of Day
13h 15m
Waxing Gibbous, 87% of the Moon is Illuminated
Feb 11
Waxing Gibbous
Feb 15
Full
Feb 23
Last Quarter
Mar 1
New
Mar 8
First Quarter

Hourly Weather History & Observations

Time (ACDT) Temp. Heat Index Dew Point Humidity Pressure Visibility Wind Dir Wind Speed Gust Speed Precip Events Conditions
12:30 AM 96.8 °F - 32.0 °F 10% 29.77 in 6.2 mi ENE 12.7 mph - N/A   Unknown
1:30 AM 93.2 °F - 33.8 °F 12% 29.77 in 6.2 mi ENE 9.2 mph - N/A   Unknown
2:30 AM 91.4 °F - 33.8 °F 13% 29.77 in 6.2 mi ENE 8.1 mph - N/A   Unknown
3:30 AM 89.6 °F - 32.0 °F 13% 29.77 in 6.2 mi ENE 8.1 mph - N/A   Unknown
4:30 AM 84.2 °F - 33.8 °F 16% 29.77 in 6.2 mi ENE 5.8 mph - N/A   Unknown
5:30 AM 80.6 °F - 35.6 °F 20% 29.77 in 6.2 mi SSE 3.5 mph - N/A   Unknown
6:30 AM 78.8 °F - 35.6 °F 21% 29.80 in 6.2 mi SSE 4.6 mph - N/A   Unknown
7:30 AM 80.6 °F - 35.6 °F 20% 29.80 in 6.2 mi SE 6.9 mph - N/A   Unknown
8:30 AM 91.4 °F - 35.6 °F 14% 29.83 in 6.2 mi East 8.1 mph - N/A   Unknown
9:30 AM 96.8 °F - 41.0 °F 15% 29.83 in 6.2 mi East 10.4 mph - N/A   Unknown
10:30 AM 98.6 °F 97.6 °F 57.2 °F 25% 29.83 in 6.2 mi NNE 11.5 mph - N/A   Unknown
11:30 AM 100.4 °F 100.2 °F 59.0 °F 25% 29.83 in 6.2 mi North 11.5 mph - N/A   Unknown
12:30 PM 102.2 °F 100.9 °F 55.4 °F 21% 29.80 in 6.2 mi North 9.2 mph - N/A   Unknown
1:30 PM 104.0 °F - 51.8 °F 17% 29.77 in 6.2 mi NE 11.5 mph - N/A   Unknown
2:30 PM 107.6 °F - 50.0 °F 15% 29.74 in 6.2 mi North 11.5 mph - N/A   Unknown
3:30 PM 109.4 °F - 42.8 °F 11% 29.74 in 6.2 mi NE 15.0 mph - N/A   Unknown
4:30 PM 107.6 °F - 42.8 °F 11% 29.71 in 6.2 mi ENE 12.7 mph - N/A   Scattered Clouds
5:30 PM 109.4 °F - 41.0 °F 10% 29.68 in 6.2 mi ENE 6.9 mph - N/A   Unknown
6:30 PM 98.6 °F 97.6 °F 57.2 °F 25% 29.71 in 4.3 mi ENE 29.9 mph 41.4 mph N/A   Scattered Clouds
6:59 PM 98.6 °F 97.2 °F 55.4 °F 24% 29.71 in 6.2 mi NE 16.1 mph - N/A   Unknown
7:30 PM 98.6 °F 96.4 °F 53.6 °F 22% 29.71 in 6.2 mi ENE 12.7 mph - N/A   Unknown
8:30 PM 96.8 °F 97.1 °F 60.8 °F 30% 29.74 in 6.2 mi NNE 9.2 mph - N/A   Unknown
9:30 PM 96.8 °F 95.8 °F 57.2 °F 27% 29.77 in 6.2 mi NNE 12.7 mph - N/A   Unknown
10:30 PM 96.8 °F 95.1 °F 55.4 °F 25% 29.77 in 6.2 mi NNE 13.8 mph - N/A   Unknown
11:30 PM 95.0 °F 93.7 °F 57.2 °F 28% 29.77 in 6.2 mi NNE 9.2 mph - N/A   Unknown